• In Romania
  • List of Countries
  • For 7 days
  • Water Temperature
  • Satellite Maps
  • Weather Map
  • Weather Widgets
  • user-avatar
    Login

    Hourly Weather Caracas

    Today, 15 October, Monday

    Time Temperature Precipitation Wind Pressure Humidity
    00:00 +18°C° 0 mm 2 mps 649 mmHg 95%
    01:00 +17°C° 0 mm 2 mps 649 mmHg 94%
    02:00 +17°C° 0 mm 2 mps 649 mmHg 93%
    03:00 +17°C° 0 mm 2 mps 649 mmHg 92%
    04:00 +16°C° 0 mm 2 mps 649 mmHg 91%
    05:00 +16°C° 0 mm 2 mps 649 mmHg 90%
    06:00 +17°C° 0 mm 2 mps 649 mmHg 87%
    07:00 +18°C° 0 mm 2 mps 650 mmHg 85%
    08:00 +19°C° 0 mm 2 mps 650 mmHg 83%
    09:00 +21°C° 0 mm 2 mps 651 mmHg 73%
    10:00 +24°C° 0 mm 2 mps 651 mmHg 64%
    11:00 +26°C° 0 mm 2 mps 652 mmHg 55%
    12:00 +26°C° 0.1 mm 3 mps 651 mmHg 57%
    13:00 +26°C° 0.1 mm 3 mps 651 mmHg 60%
    14:00 +26°C° 0.1 mm 3 mps 650 mmHg 62%
    15:00 +25°C° 1.1 mm 3 mps 649 mmHg 69%
    16:00 +24°C° 1.1 mm 3 mps 649 mmHg 75%
    17:00 +22°C° 1.1 mm 3 mps 648 mmHg 82%
    18:00 +21°C° 0.6 mm 3 mps 648 mmHg 85%
    19:00 +20°C° 0.6 mm 2 mps 648 mmHg 88%
    20:00 +18°C° 0.6 mm 2 mps 649 mmHg 92%
    21:00 +18°C° 0 mm 3 mps 649 mmHg 93%
    22:00 +18°C° 0 mm 3 mps 649 mmHg 94%
    23:00 +18°C° 0 mm 3 mps 649 mmHg 95%

    Tomorrow, 16 October, Tuesday

    Time Temperature Precipitation Wind Pressure Humidity
    00:00 +18°C° 0.1 mm 3 mps 649 mmHg 95%
    01:00 +18°C° 0.1 mm 3 mps 649 mmHg 96%
    02:00 +18°C° 0.1 mm 3 mps 648 mmHg 96%
    03:00 +18°C° 0.1 mm 3 mps 648 mmHg 96%
    04:00 +18°C° 0.1 mm 3 mps 648 mmHg 96%
    05:00 +18°C° 0.1 mm 2 mps 648 mmHg 96%
    06:00 +19°C° 0.1 mm 2 mps 648 mmHg 94%
    07:00 +19°C° 0.1 mm 2 mps 649 mmHg 93%
    08:00 +19°C° 0.1 mm 2 mps 649 mmHg 91%
    09:00 +21°C° 0.1 mm 2 mps 650 mmHg 86%
    10:00 +23°C° 0.1 mm 2 mps 650 mmHg 82%
    11:00 +24°C° 0.1 mm 2 mps 651 mmHg 77%
    12:00 +24°C° 1 mm 2 mps 650 mmHg 78%
    13:00 +24°C° 1 mm 3 mps 649 mmHg 79%
    14:00 +25°C° 1 mm 3 mps 648 mmHg 80%
    15:00 +24°C° 0.8 mm 2 mps 648 mmHg 83%
    16:00 +23°C° 0.8 mm 2 mps 648 mmHg 86%
    17:00 +21°C° 0.8 mm 2 mps 647 mmHg 89%
    18:00 +20°C° 0.3 mm 2 mps 647 mmHg 91%
    19:00 +20°C° 0.3 mm 2 mps 648 mmHg 94%
    20:00 +19°C° 0.3 mm 2 mps 648 mmHg 96%
    21:00 +19°C° 0.1 mm 2 mps 648 mmHg 96%
    22:00 +19°C° 0.1 mm 2 mps 648 mmHg 96%
    23:00 +19°C° 0.1 mm 2 mps 649 mmHg 96%

    Day after tomorrow, 17 October, Wednesday

    Time Temperature Precipitation Wind Pressure Humidity
    00:00 +18°C° 0.1 mm 2 mps 648 mmHg 96%
    01:00 +18°C° 0.1 mm 2 mps 648 mmHg 96%
    02:00 +18°C° 0.1 mm 2 mps 647 mmHg 96%
    03:00 +18°C° 0.1 mm 2 mps 647 mmHg 96%
    04:00 +18°C° 0.1 mm 2 mps 647 mmHg 96%
    05:00 +18°C° 0.1 mm 2 mps 647 mmHg 97%
    06:00 +19°C° 0 mm 2 mps 647 mmHg 95%
    07:00 +19°C° 0 mm 2 mps 648 mmHg 94%
    08:00 +19°C° 0 mm 2 mps 648 mmHg 93%
    09:00 +20°C° 0.2 mm 2 mps 649 mmHg 89%
    10:00 +21°C° 0.2 mm 2 mps 649 mmHg 86%
    11:00 +23°C° 0.2 mm 2 mps 650 mmHg 82%
    12:00 +23°C° 1.4 mm 2 mps 649 mmHg 82%
    13:00 +24°C° 1.4 mm 2 mps 648 mmHg 82%
    14:00 +25°C° 1.4 mm 2 mps 648 mmHg 81%
    15:00 +24°C° 0.9 mm 2 mps 647 mmHg 83%
    16:00 +23°C° 0.9 mm 2 mps 647 mmHg 85%
    17:00 +21°C° 0.9 mm 2 mps 647 mmHg 87%
    18:00 +21°C° 0.6 mm 2 mps 647 mmHg 90%
    19:00 +20°C° 0.6 mm 2 mps 647 mmHg 93%
    20:00 +19°C° 0.6 mm 2 mps 648 mmHg 96%
    21:00 +19°C° 0.3 mm 2 mps 648 mmHg 96%
    22:00 +19°C° 0.3 mm 3 mps 648 mmHg 96%
    23:00 +19°C° 0.3 mm 3 mps 648 mmHg 96%

    18 October, Thursday

    Time Temperature Precipitation Wind Pressure Humidity
    00:00 +19°C° 0.1 mm 3 mps 648 mmHg 96%
    01:00 +19°C° 0.1 mm 2 mps 647 mmHg 96%
    02:00 +18°C° 0.1 mm 2 mps 647 mmHg 96%
    03:00 +18°C° 0.1 mm 2 mps 647 mmHg 96%
    04:00 +18°C° 0.1 mm 2 mps 647 mmHg 96%
    05:00 +18°C° 0.1 mm 2 mps 646 mmHg 97%
    06:00 +19°C° 0.1 mm 2 mps 647 mmHg 94%
    07:00 +19°C° 0.1 mm 2 mps 648 mmHg 92%
    08:00 +20°C° 0.1 mm 2 mps 648 mmHg 89%
    09:00 +21°C° 1 mm 2 mps 649 mmHg 86%
    10:00 +23°C° 1 mm 2 mps 649 mmHg 83%
    11:00 +24°C° 1 mm 2 mps 649 mmHg 79%
    12:00 +24°C° 2.6 mm 2 mps 649 mmHg 81%
    13:00 +24°C° 2.6 mm 2 mps 648 mmHg 83%
    14:00 +24°C° 2.6 mm 2 mps 647 mmHg 85%
    15:00 +22°C° 2.5 mm 3 mps 647 mmHg 86%
    16:00 +22°C° 2.5 mm 3 mps 646 mmHg 87%
    17:00 +21°C° 2.5 mm 3 mps 646 mmHg 88%
    18:00 +20°C° 1.4 mm 3 mps 646 mmHg 90%
    19:00 +20°C° 1.4 mm 3 mps 647 mmHg 92%
    20:00 +19°C° 1.4 mm 3 mps 647 mmHg 94%
    21:00 +19°C° 1.2 mm 3 mps 647 mmHg 94%
    22:00 +19°C° 1.2 mm 3 mps 648 mmHg 95%
    23:00 +19°C° 1.2 mm 3 mps 648 mmHg 96%

    19 October, Friday

    Time Temperature Precipitation Wind Pressure Humidity
    00:00 +18°C° 0.6 mm 3 mps 647 mmHg 96%
    01:00 +18°C° 0.6 mm 3 mps 647 mmHg 96%
    02:00 +18°C° 0.6 mm 2 mps 647 mmHg 96%
    03:00 +18°C° 0.8 mm 2 mps 647 mmHg 96%
    04:00 +18°C° 0.8 mm 2 mps 647 mmHg 96%
    05:00 +17°C° 0.8 mm 2 mps 647 mmHg 96%
    06:00 +18°C° 1.4 mm 2 mps 647 mmHg 94%
    07:00 +19°C° 1.4 mm 2 mps 648 mmHg 92%
    08:00 +19°C° 1.4 mm 2 mps 648 mmHg 91%
    09:00 +21°C° 0.5 mm 2 mps 649 mmHg 86%
    10:00 +23°C° 0.5 mm 2 mps 649 mmHg 82%
    11:00 +24°C° 0.5 mm 2 mps 649 mmHg 78%
    12:00 +24°C° 1.8 mm 2 mps 649 mmHg 81%
    13:00 +23°C° 1.8 mm 2 mps 648 mmHg 85%
    14:00 +23°C° 1.8 mm 2 mps 647 mmHg 88%
    15:00 +23°C° 1.8 mm 2 mps 647 mmHg 88%
    16:00 +21°C° 1.8 mm 2 mps 647 mmHg 89%
    17:00 +21°C° 1.8 mm 2 mps 646 mmHg 90%
    18:00 +20°C° 2.1 mm 2 mps 647 mmHg 91%
    19:00 +19°C° 2.1 mm 2 mps 647 mmHg 92%
    20:00 +19°C° 2.1 mm 2 mps 647 mmHg 94%
    21:00 +18°C° 1.5 mm 2 mps 647 mmHg 94%
    22:00 +18°C° 1.5 mm 3 mps 647 mmHg 94%
    23:00 +18°C° 1.5 mm 3 mps 647 mmHg 94%

    20 October, Saturday

    Time Temperature Precipitation Wind Pressure Humidity
    00:00 +18°C° 1.2 mm 2 mps 647 mmHg 94%
    01:00 +18°C° 1.2 mm 2 mps 647 mmHg 94%
    02:00 +18°C° 1.2 mm 2 mps 646 mmHg 93%
    03:00 +18°C° 1.3 mm 2 mps 646 mmHg 93%
    04:00 +17°C° 1.3 mm 2 mps 646 mmHg 93%
    05:00 +17°C° 1.3 mm 2 mps 646 mmHg 92%
    06:00 +18°C° 0.6 mm 2 mps 647 mmHg 91%
    07:00 +19°C° 0.6 mm 2 mps 648 mmHg 89%
    08:00 +19°C° 0.6 mm 2 mps 648 mmHg 88%
    09:00 +21°C° 0.4 mm 2 mps 649 mmHg 84%
    10:00 +23°C° 0.4 mm 1 mps 649 mmHg 80%
    11:00 +24°C° 0.4 mm 1 mps 649 mmHg 75%
    12:00 +24°C° 1.6 mm 1 mps 648 mmHg 80%
    13:00 +23°C° 1.6 mm 1 mps 648 mmHg 84%
    14:00 +22°C° 1.6 mm 1 mps 647 mmHg 89%
    15:00 +22°C° 2 mm 1 mps 646 mmHg 90%
    16:00 +21°C° 2 mm 1 mps 646 mmHg 91%
    17:00 +21°C° 2 mm 1 mps 646 mmHg 93%
    18:00 +20°C° 1.4 mm 1 mps 646 mmHg 93%
    19:00 +20°C° 1.4 mm 1 mps 647 mmHg 94%
    20:00 +19°C° 1.4 mm 1 mps 647 mmHg 95%
    21:00 +19°C° 1.4 mm 1 mps 647 mmHg 95%
    22:00 +19°C° 1.4 mm 1 mps 647 mmHg 96%
    23:00 +19°C° 1.4 mm 1 mps 647 mmHg 96%
    Show more